Location: Ao Por, Phuket, Thailand
(8.0591°N, 98.4362°E)
Time: 04:12:37
(UTC+07:00)

N. Korean satellite - Pass Details

Date: 26 September 2021
Orbit: 450 x 494 km, 97.3° (Epoch: 28 October)

Event Time Altitude Azimuth Distance (km) Brightness Sun altitude
Rises 05:28:09 0° 7° (N) 2,542 10.3 -12.4°
Reaches altitude 10° 05:30:13 10° 5° (N) 1,670 9.4 -11.9°
Maximum altitude 05:33:48 72° 281° (W) 520 6.5 -11.0°
Drops below altitude 10° 05:37:25 10° 197° (SSW) 1,688 9.1 -10.1°
Sets 05:39:30 0° 195° (SSW) 2,573 10.1 -9.6°
